SKYSAT-C6 (42992 NORAD) Tracking and Keplerian Element Data

This shows tracking and keplerian element data for the satellite.

Feedback or suggestion? Click here.




ElementValue
Catalog42992
NameSKYSAT-C6
Epoch Orbit36914
Epoch Day159.62605234
Epoch Year2024
RAAN286.6452
Inclination97.372
Eccentricity0.000311
Argument of Perigee171.4735
Mean Anonmoly188.656
Mean Motion15.31202464
Decay Rate0.00017682
L11 42992U 17068F 24159.62605234 .00017682 00000+0 58843-3 0 9991
L22 42992 97.3720 286.6452 0003110 171.4735 188.6560 15.31202464369147



Live tracking and technical data element details for SKYSAT-C6 (NORAD 42992). SKYSAT-C6 can be tracked NOW for your location showing map with azimuth and elevation plus other details from your city location.







IsCatalogInMostPopularTable: catalog: 42992, numindb: 631
Update: records affected: 1



GetName: 42992 SKYSAT-C6

Hit Count: updated at: Mon, 17 Jun 2024 22:54:36 GMT